Home > Weather > Rancho Cucamonga > Past weeks

Flag for U.S.A. Weather for the Past 2 Weeks in Rancho Cucamonga, California, U.S.A.

Now
84 °F

Sunny.


Feels Like: 81 °F
Forecast: 54 / 83 °F
Wind: 12 mph from Northeast

Location: Ontario International Airport

Current Time: Feb 8, 2016 at 4:38:15 PM

Latest Report: Feb 8, 2016 at 3:53 PM


Visibility: 10 mi

Pressure: 30.04 "Hg

Humidity: 9%

Dew point: 20 °F

Location of Rancho CucamongaLocation

Historic Weather in Rancho Cucamonga — Graph

°F

Rancho Cucamonga Temperature Yesterday

Maximum temperature yesterday: 84 °F (at 1:53 PM)
Minimum temperature yesterday: 43 °F (at 6:53 AM)
Average temperature yesterday: 67 °F

High & Low Weather Summary for the Past Weeks

 TemperatureHumidityPressure
High86 °F (Feb 8, 1:53 PM)93% (Jan 30, 9:53 PM)30.37 "Hg (Jan 30, 9:53 PM)
Low34 °F (Feb 2, 1:53 AM)7% (Feb 7, 2:53 PM)29.59 "Hg (Jan 31, 1:53 PM)
Average56 °F44%30.13 "Hg
* Reported Jan 24 2:53 PM — Feb 8 2:53 PM, Rancho Cucamonga, Weather by CustomWeather, © 2016

Note: Actual official high and low records may vary slightly from our data, if they occured in-between our weather recording intervals... More about our weather records

Advertising

Rancho Cucamonga Weather History for the Previous 24 Hours

 ConditionsComfort  
Time TempWeatherWind HumidityBarometerVisibility
2:53 PM
Mon, Feb 8
85 °FSunny.13 mph9%30.04 "Hg10 mi
1:53 PM86 °FSunny.12 mph9%30.05 "Hg10 mi
12:53 PM85 °FSunny.16 mph9%30.06 "Hg10 mi
11:53 AM84 °FSunny.13 mph9%30.09 "Hg10 mi
10:53 AM84 °FSunny.17 mph9%30.11 "Hg10 mi
9:53 AM82 °FSunny.16 mph9%30.11 "Hg10 mi
8:53 AM79 °FSunny.14 mph10%30.11 "Hg10 mi
7:53 AM75 °FSunny.14 mph11%30.11 "Hg10 mi
6:53 AM72 °FSunny.16 mph13%30.09 "Hg10 mi
5:53 AM73 °FClear.17 mph12%30.09 "Hg10 mi
4:53 AM73 °FClear.16 mph12%30.08 "Hg10 mi
3:53 AM74 °FClear.18 mph11%30.06 "Hg10 mi
2:53 AM74 °FClear.14 mph11%30.08 "Hg10 mi
1:53 AM73 °FClear.15 mph12%30.09 "Hg10 mi
12:53 AM74 °FClear.20 mph11%30.10 "Hg10 mi
11:53 PM
Sun, Feb 7
74 °FClear.18 mph11%30.10 "Hg10 mi
10:53 PM74 °FClear.14 mph11%30.10 "Hg10 mi
9:53 PM75 °FClear.18 mph10%30.10 "Hg10 mi
8:53 PM75 °FClear.22 mph9%30.11 "Hg10 mi
7:53 PM75 °FClear.24 mph8%30.10 "Hg10 mi
6:53 PM76 °FClear.15 mph7%30.10 "Hg10 mi
5:53 PM76 °FClear.20 mph7%30.10 "Hg10 mi
4:53 PM79 °FSunny.15 mph7%30.08 "Hg10 mi
Weather by CustomWeather, © 2016

See weather overviewHow to use our weather pages